Home   Weather   Choloma   Past weeks

Flag for Honduras Past Weather in Choloma, Honduras — Yesterday and Last 2 Weeks

Now
93 °F

Passing clouds.


Feels Like: 98 °F
Forecast: 68 / 82 °F
Wind: 3 mph from Southwest

Location: La Mesa San Pedro Sula

Current Time: Feb 21, 2017 at 12:58:28 pm

Latest Report: Feb 21, 2017 at 12:00 pm


Visibility: N/A

Pressure: 29.92 "Hg

Humidity: 44%

Dew Point: 68 °F

Location of CholomaLocation

Past Weather in Choloma — Graph

°F

Choloma Temperature Yesterday

Maximum temperature yesterday: 93 °F (at 1:00 pm)
Minimum temperature yesterday: 68 °F (at 5:00 am)
Average temperature yesterday: 81 °F

High & Low Weather Summary for the Past Weeks

 TemperatureHumidityPressure
High95 °F (Feb 18, 2:00 pm)100% (Feb 6, 7:00 pm)30.15 "Hg (Feb 6, 7:00 pm)
Low66 °F (Feb 13, 7:00 am)37% (Feb 7, 3:00 pm)29.77 "Hg (Feb 18, 3:00 pm)
Average79 °F85%29.95 "Hg
* Reported Feb 6 11:00 am — Feb 21 11:00 am, Choloma, Weather by CustomWeather, © 2017

Note: Actual official high and low records may vary slightly from our data, if they occured in-between our weather recording intervals... More about our weather records

Advertising

Choloma Weather History for the Previous 24 Hours

Scroll right to see more
 ConditionsComfort  
Time TempWeatherWind HumidityBarometerVisibility
11:00 am
Tue, Feb 21
90 °FPassing clouds.9 mph52%29.95 "HgN/A
10:00 am86 °FPassing clouds.8 mph59%29.95 "HgN/A
9:00 am84 °FPassing clouds.3 mph66%29.95 "HgN/A
8:00 am75 °FPassing clouds.No wind89%29.95 "HgN/A
7:00 am72 °FPassing clouds.2 mph94%29.92 "HgN/A
6:00 am70 °FPassing clouds.No wind100%29.92 "HgN/A
4:00 am70 °FPassing clouds.No wind100%29.89 "HgN/A
3:00 am70 °FPassing clouds.No wind100%29.89 "HgN/A
2:00 am73 °FPassing clouds.No wind94%29.95 "HgN/A
1:00 am73 °FPassing clouds.5 mph94%29.92 "HgN/A
12:00 am73 °FPassing clouds.5 mph100%29.92 "HgN/A
11:00 pm
Mon, Feb 20
75 °FPassing clouds.No wind100%29.92 "HgN/A
10:00 pm77 °FPassing clouds.5 mph94%29.92 "HgN/A
9:00 pm77 °FPassing clouds.7 mph89%29.92 "HgN/A
8:00 pm79 °FPassing clouds.7 mph84%29.92 "HgN/A
7:00 pm81 °FPassing clouds.7 mph79%29.89 "HgN/A
6:00 pm82 °FPassing clouds.12 mph74%29.86 "HgN/A
5:00 pm86 °FScattered clouds.14 mph70%29.83 "HgN/A
4:00 pm91 °FPartly sunny.14 mph56%29.83 "HgN/A
3:00 pm93 °FBroken clouds.9 mph47%29.83 "HgN/A
2:00 pm91 °FBroken clouds.5 mph44%29.86 "HgN/A
1:00 pm93 °FPartly sunny.5 mph41%29.89 "HgN/A
12:00 pm91 °FPartly sunny.9 mph46%29.92 "HgN/A
Weather by CustomWeather, © 2017

See weather overviewHow to use our weather pages